Warsaw, Poland

6:58 AM CEST on April 27, 2018 (GMT +0200)
Okecie

Weather History for EPWA - November, 2013

Change the Weather History Date:

Wednesday, November 13, 2013

  Actual Average Record
Temperature  
Mean Temperature 39 °F -  
Max Temperature 41 °F 40 °F 60 °F (1996)
Min Temperature 37 °F 30 °F 25 °F (2016)
Degree Days  
Heating Degree Days 26    
Moisture  
Dew Point 38 °F    
Average Humidity 90    
Maximum Humidity 100    
Minimum Humidity 73    
Precipitation  
Precipitation 0.02 in 0.05 in - ()
Sea Level Pressure  
Sea Level Pressure 30.24 in    
Wind  
Wind Speed 5 mph ()    
Max Wind Speed 15 mph    
Max Gust Speed -    
Visibility 4.2 miles    
Events Rain    
Averages and records for this station are not official NWS values.
T = Trace of Precipitation, MM = Missing Value Source: Averaged Metar Reports

Daily Weather History Graph

Daily Weather History Graph

Search for Another Location

Airport or City:

Astronomy

Nov. 13, 2013 Rise Set
Actual Time 6:53 AM CET 3:47 PM CET
Civil Twilight 6:15 AM CET 4:24 PM CET
Nautical Twilight 5:34 AM CET 5:05 PM CET
Astronomical Twilight 4:54 AM CET 5:45 PM CET
Moon 1:51 PM CET (11/13) 1:55 AM CET (11/13)
Length of Visible Light 10h 08m
Length of Day
8h 53m
Waxing Gibbous, 82% of the Moon is Illuminated
Nov 13
Waxing Gibbous
Nov 17
Full
Nov 25
Last Quarter
Dec 3
New
Dec 9
First Quarter

Hourly Weather History & Observations

Time (CET) Temp. Windchill Dew Point Humidity Pressure Visibility Wind Dir Wind Speed Gust Speed Precip Events Conditions
12:00 AM 41.0 °F 37.1 °F 35.6 °F 81% 30.24 in 6.2 mi South 5.8 mph - N/A   Mostly Cloudy
12:30 AM 41.0 °F - 37.4 °F 87% 30.24 in 6.2 mi South 2.3 mph - N/A   Mostly Cloudy
1:00 AM 41 °F - 36 °F 74% 30.27 in 9 mi Calm Calm - -   Mostly Cloudy
1:00 AM 41.0 °F - 37.4 °F 87% 30.24 in 6.2 mi Variable 2.3 mph - N/A   Mostly Cloudy
1:30 AM 41.0 °F 38.0 °F 37.4 °F 87% 30.24 in 6.2 mi West 4.6 mph - N/A   Mostly Cloudy
2:00 AM 41.0 °F - 37.4 °F 87% 30.24 in 6.2 mi Variable 1.2 mph - N/A   Mostly Cloudy
2:30 AM 41.0 °F - 37.4 °F 87% 30.24 in 6.2 mi SE 2.3 mph - N/A   Mostly Cloudy
3:00 AM 41.0 °F - 37.4 °F 87% 30.24 in 6.2 mi SE 2.3 mph - N/A   Mostly Cloudy
3:30 AM 41.0 °F - 37.4 °F 87% 30.24 in 6.2 mi Calm Calm - N/A   Mostly Cloudy
4:00 AM 41 °F - 36 °F 77% 30.25 in 9 mi Calm Calm - -   Mostly Cloudy
4:00 AM 41.0 °F - 37.4 °F 87% 30.21 in 6.2 mi Calm Calm - N/A   Mostly Cloudy
4:30 AM 41.0 °F - 37.4 °F 87% 30.21 in 6.2 mi Variable 2.3 mph - N/A   Mostly Cloudy
5:00 AM 41.0 °F 39.0 °F 37.4 °F 87% 30.21 in 6.2 mi WSW 3.5 mph - N/A   Mostly Cloudy
5:30 AM 41.0 °F 38.0 °F 37.4 °F 87% 30.21 in 6.2 mi West 4.6 mph - N/A   Mostly Cloudy
6:00 AM 41.0 °F 38.0 °F 37.4 °F 87% 30.21 in 6.2 mi WSW 4.6 mph - N/A   Mostly Cloudy
6:30 AM 41.0 °F 37.1 °F 37.4 °F 87% 30.21 in 6.2 mi West 5.8 mph - N/A   Mostly Cloudy
7:00 AM 40 °F - 36 °F 78% 30.25 in 9 mi West 4.5 mph - -   Mostly Cloudy
7:00 AM 41.0 °F 37.1 °F 37.4 °F 87% 30.21 in 6.2 mi West 5.8 mph - N/A   Mostly Cloudy
7:30 AM 39.2 °F 34.2 °F 35.6 °F 87% 30.21 in 6.2 mi West 6.9 mph - N/A   Mostly Cloudy
8:00 AM 39.2 °F 35.0 °F 35.6 °F 87% 30.21 in 6.2 mi West 5.8 mph - N/A   Mostly Cloudy
8:30 AM 39.2 °F 35.0 °F 35.6 °F 87% 30.21 in 5.0 mi West 5.8 mph - N/A   Mostly Cloudy
9:00 AM 41.0 °F 38.0 °F 35.6 °F 81% 30.21 in 5.0 mi WSW 4.6 mph - N/A   Partly Cloudy
9:30 AM 41.0 °F 37.1 °F 35.6 °F 81% 30.24 in 5.0 mi WSW 5.8 mph - N/A   Unknown
10:00 AM 41 °F - 35 °F 73% 30.26 in 4 mi West 4.5 mph - -   Mist
10:00 AM 41.0 °F 37.1 °F 35.6 °F 81% 30.24 in 5.0 mi West 5.8 mph - N/A   Unknown
10:30 AM 41.0 °F 35.2 °F 37.4 °F 87% 30.24 in 3.7 mi West 9.2 mph - N/A   Scattered Clouds
11:00 AM 41.0 °F 33.9 °F 37.4 °F 87% 30.24 in 3.1 mi West 12.7 mph - N/A   Mostly Cloudy
11:30 AM 41.0 °F 34.3 °F 37.4 °F 87% 30.21 in 1.9 mi West 11.5 mph - N/A Rain Light Rain
12:00 PM 41.0 °F 35.8 °F 39.2 °F 93% 30.21 in 1.9 mi WSW 8.1 mph - N/A Rain Light Rain
12:30 PM 41.0 °F 35.8 °F 39.2 °F 93% 30.21 in 1.9 mi West 8.1 mph - N/A Rain Light Rain
1:00 PM 41 °F - 39 °F 90% 30.25 in 2 mi West 6.7 mph - - Rain Light Rain
1:00 PM 41.0 °F 36.4 °F 39.2 °F 93% 30.21 in 1.6 mi West 6.9 mph - N/A Rain Light Rain
1:30 PM 41.0 °F 35.2 °F 39.2 °F 93% 30.21 in 2.2 mi West 9.2 mph - N/A   Mostly Cloudy
2:00 PM 41.0 °F 33.9 °F 39.2 °F 93% 30.21 in 1.9 mi West 12.7 mph - N/A   Mostly Cloudy
2:30 PM 41.0 °F 33.1 °F 39.2 °F 93% 30.21 in 1.6 mi West 15.0 mph - N/A   Mostly Cloudy
3:00 PM 41.0 °F 33.9 °F 39.2 °F 93% 30.24 in 1.6 mi West 12.7 mph - N/A   Mostly Cloudy
3:30 PM 41.0 °F 33.5 °F 39.2 °F 93% 30.24 in 1.4 mi West 13.8 mph - N/A   Mostly Cloudy
4:00 PM 40 °F - 39 °F 96% 30.28 in 1 mi West 11.2 mph - -   Mist
4:00 PM 41.0 °F 33.5 °F 41.0 °F 100% 30.24 in 1.4 mi West 13.8 mph - N/A   Mostly Cloudy
4:30 PM 41.0 °F 35.2 °F 41.0 °F 100% 30.24 in 1.6 mi West 9.2 mph - N/A   Mostly Cloudy
5:00 PM 41.0 °F 35.2 °F 41.0 °F 100% 30.27 in 2.5 mi West 9.2 mph - N/A   Mostly Cloudy
5:30 PM 41.0 °F 35.2 °F 41.0 °F 100% 30.27 in 3.1 mi West 9.2 mph - N/A   Mostly Cloudy
6:00 PM 41.0 °F 34.7 °F 39.2 °F 93% 30.27 in 3.7 mi West 10.4 mph - N/A   Scattered Clouds
6:30 PM 41.0 °F 34.7 °F 41.0 °F 100% 30.27 in 3.7 mi West 10.4 mph - N/A   Mostly Cloudy
7:00 PM 42 °F - 40 °F 89% 30.30 in 4 mi West 8.9 mph - -   Mist
7:00 PM 41.0 °F 34.3 °F 41.0 °F 100% 30.27 in 3.7 mi West 11.5 mph - N/A   Mostly Cloudy
7:30 PM 41.0 °F 34.7 °F 41.0 °F 100% 30.27 in 3.1 mi West 10.4 mph - N/A   Mostly Cloudy
8:00 PM 41.0 °F 34.7 °F 41.0 °F 100% 30.27 in 3.1 mi West 10.4 mph - N/A   Mostly Cloudy
8:30 PM 41.0 °F 34.3 °F 39.2 °F 93% 30.27 in 3.1 mi West 11.5 mph - N/A   Mostly Cloudy
9:00 PM 41.0 °F 33.5 °F 39.2 °F 93% 30.27 in 3.1 mi West 13.8 mph - N/A   Mostly Cloudy
9:30 PM 39.2 °F 32.0 °F 39.2 °F 100% 30.27 in 3.1 mi West 11.5 mph - N/A   Mostly Cloudy
10:00 PM 39 °F - 38 °F 93% 30.32 in 3 mi West 8.9 mph - -   Mist
10:00 PM 39.2 °F 32.5 °F 39.2 °F 100% 30.27 in 3.1 mi West 10.4 mph - N/A   Scattered Clouds
10:30 PM 39.2 °F 32.5 °F 39.2 °F 100% 30.30 in 3.1 mi West 10.4 mph - N/A   Scattered Clouds
11:00 PM 37.4 °F 30.3 °F 37.4 °F 100% 30.30 in 3.1 mi West 10.4 mph - N/A   Partly Cloudy
11:30 PM 37.4 °F 31.4 °F 37.4 °F 100% 30.30 in 2.5 mi West 8.1 mph - N/A   Partly Cloudy